Weather in Turan

Russia / Republic of Buryatia     51°38′13″N   101°39′49″E
temp.,
°C
wind,
m/s
gust,
m/s
humid.,
%
clouds,
%
prec.,
mm/h
press.,
hPa
HPBL,
m
9 december, thu
thu923:00−12nne228284 0.1 103016
02:00−11e1298100 0.6 103172
05:00−13ne129797 0.3 103347
08:00−13nne1294100 0.4 1034191
11:00−14ese1294100 0.4 1033355
14:00−14ese1292100 1.6 1033344
17:00−15e119892 0.4 103526
20:00−16sw0197100 0.6 103740
10 december, fri
fri1023:00−18nnw229288 0.1 104010
02:00−19nnw228182 0.2 104111
05:00−21nnw227868 0.0 104311
08:00−21nnw327538 0.0 104312
11:00−17wnw23666 0.0 1041105
14:00−13wsw2456100 0.0 1036439
17:00−15nw3475100 0.0 103842
20:00−16nw4567100 0.0 1039101
11 december, sat
sat1123:00−17nw456982 0.0 104062
02:00−18nw447168 0.0 104150
05:00−19nw43739 0.0 104228
08:00−20nnw32754 0.0 104417
11:00−18nnw11680 0.0 1044100
14:00−14w12654 0.0 1041248
17:00−18nnw32755 0.0 104314
20:00−18nnw326914 0.0 104313
12 december, sun
sun1223:00−17nw3271100 0.0 104212
02:00−16nw327632 0.0 103913
05:00−15nw337637 0.0 103523
08:00−13wnw3573100 0.0 103154
11:00−9w3671100 0.0 1026193
14:00−6w4672100 0.0 1020281
17:00−7wnw4671100 0.0 1018103
20:00−8wnw4563100 0.0 101877
13 december, mon
mon1323:00−9nw3264100 0.0 101713
02:00−11nw3363100 0.0 101515
05:00−10nw4362100 0.0 101523
08:00−11nnw3367100 0.0 101622
11:00−10n227195 0.0 101743
14:00−12e238868 0.0 1020222
17:00−14ene129996 0.2 102361
20:00−15se139899 0.6 1025144